QPF
0.03 0.02 0.00 0.01 0.02 0.06 0.03 0.03 0.02 0.03 0.02 0.00 0.00 0.00 0.00 0.00 0.00 0.00 0.00 0.00 0.00 0.00
0.03 0.01 0.00 0.00 0.01 0.04 0.08 0.05 0.08 0.05 0.06 0.03 0.00 0.00 0.00 0.00 0.00 0.00 0.00 0.00 0.00 0.00
0.04 0.02 0.01 0.02 0.02 0.03 0.02 0.01 0.01 0.01 0.02 0.02 0.01 0.00 0.00 0.00 0.00 0.00 0.00 0.00 0.00 0.00
0.05 0.05 0.04 0.02 0.03 0.01 0.01 0.01 0.00 0.01 0.00 0.01 0.00 0.00 0.00 0.00 0.00 0.00 0.00 0.00 0.00 0.00
0.07 0.05 0.04 0.02 0.01 0.01 0.00 0.01 0.00 0.00 0.00 0.01 0.00 0.00 0.00 0.00 0.00 0.00 0.00 0.00 0.00 0.00
0.21 0.23 0.11 0.02 0.00 0.00 0.00 0.00 0.01 0.01 0.00 0.01 0.00 0.00 0.00 0.00 0.00 0.00 0.00 0.00 0.00 0.00
0.29 0.28 0.27 0.21 0.10 0.04 0.00 0.00 0.00 0.00 0.00 0.00 0.00 0.00 0.00 0.01 0.01 0.00 0.00 0.00 0.00 0.00
0.27 0.24 0.18 0.13 0.08 0.05 0.03 0.02 0.01 0.00 0.00 0.00 0.00 0.00 0.00 0.01 0.00 0.00 0.00 0.00 0.00 0.00
0.23 0.29 0.28 0.22 0.15 0.05 0.03 0.05 0.07 0.04 0.03 0.02 0.01 0.00 0.00 0.00 0.00 0.00 0.00 0.00 0.00 0.00
0.12 0.18 0.31 0.42 0.37 0.31 0.18 0.10 0.06 0.04 0.03 0.03 0.01 0.00 0.00 0.00 0.00 0.00 0.00 0.00 0.00 0.00
0.00 0.02 0.03 0.11 0.20 0.30 0.22 0.24 0.12 0.04 0.03 0.02 0.02 0.01 0.05 0.08 0.00 0.00 0.00 0.00 0.00 0.00
0.00 0.00 0.00 0.00 0.02 0.06 0.09 0.20 0.26 0.25 0.16 0.08 0.03 0.06 0.06 0.15 0.08 0.02 0.01 0.00 0.00 0.00
0.00 0.00 0.00 0.00 0.00 0.00 0.02 0.05 0.15 0.15 0.12 0.09 0.10 0.14 0.18 0.20 0.06 0.02 0.05 0.01 0.00 0.00
0.00 0.00 0.00 0.00 0.00 0.00 0.00 0.00 0.00 0.00 0.00 0.00 0.00 0.02 0.06 0.13 0.11 0.06 0.10 0.07 0.02 0.01
MSLP
1018.64 1019.12 1019.30 1019.39 1019.75 1020.02 1019.96 1020.06 1020.04 1019.98 1020.16 1020.32 1020.22 1020.31 1020.56 1020.66 1020.99 1020.94 1021.03 1021.20 1021.04 1021.12
1018.79 1018.79 1019.03 1019.00 1019.48 1019.74 1020.02 1019.84 1019.89 1019.87 1019.94 1020.25 1020.17 1020.17 1020.50 1020.74 1020.74 1020.96 1021.10 1021.14 1021.14 1020.98
1018.14 1018.45 1018.60 1018.87 1019.11 1019.44 1019.52 1019.38 1019.50 1019.92 1019.92 1020.11 1020.14 1020.07 1020.28 1020.68 1020.78 1021.01 1021.11 1021.14 1021.25 1021.20
1017.82 1018.15 1018.45 1018.60 1018.98 1019.36 1019.16 1019.49 1019.90 1019.89 1019.98 1020.26 1020.11 1019.86 1020.35 1020.62 1020.76 1021.06 1021.27 1021.34 1021.32 1021.22
1017.48 1017.85 1018.27 1018.44 1018.63 1019.30 1019.50 1019.32 1019.63 1019.94 1020.32 1020.04 1019.99 1019.85 1020.15 1020.38 1020.46 1020.76 1021.14 1021.17 1021.28 1021.25
1017.47 1017.55 1017.90 1018.18 1018.25 1018.48 1019.11 1019.44 1019.56 1020.04 1019.85 1019.78 1019.78 1019.87 1020.06 1020.20 1020.36 1020.42 1020.62 1020.85 1020.93 1020.84
1018.44 1018.15 1018.10 1018.00 1017.92 1018.03 1018.36 1018.82 1018.99 1019.06 1019.19 1019.25 1019.47 1019.66 1019.73 1019.88 1019.96 1020.15 1020.28 1020.30 1020.32 1020.31
1019.31 1018.94 1018.82 1018.79 1018.26 1017.89 1018.20 1018.51 1018.64 1018.70 1018.83 1018.92 1019.07 1019.17 1019.36 1019.42 1019.52 1019.69 1019.82 1019.86 1019.84 1019.73
1019.08 1019.62 1019.84 1019.56 1019.24 1018.42 1018.34 1018.27 1018.37 1018.56 1018.66 1018.78 1018.84 1018.83 1018.94 1019.02 1019.11 1019.26 1019.41 1019.49 1019.27 1019.20
1020.32 1020.42 1020.09 1019.87 1019.81 1019.35 1019.25 1018.79 1018.60 1018.52 1018.50 1018.54 1018.58 1018.68 1018.72 1018.76 1018.93 1018.95 1018.98 1019.00 1018.86 1018.85
1020.50 1020.29 1020.47 1020.47 1020.05 1019.99 1019.88 1019.46 1019.29 1018.96 1018.74 1018.57 1018.43 1018.51 1018.61 1018.69 1018.74 1018.64 1018.54 1018.49 1018.55 1018.53
1020.56 1020.44 1020.53 1020.09 1020.12 1019.93 1019.79 1019.53 1019.46 1019.34 1019.30 1019.14 1018.61 1018.57 1018.58 1018.60 1018.51 1018.38 1018.08 1017.91 1018.01 1018.10
1021.03 1020.94 1020.82 1020.27 1019.98 1020.24 1019.70 1019.63 1019.54 1019.43 1019.11 1018.94 1018.69 1018.57 1018.45 1018.50 1018.46 1018.11 1018.08 1017.75 1017.50 1017.47
1021.52 1021.31 1020.91 1020.80 1020.50 1020.05 1019.76 1019.54 1019.48 1019.26 1018.80 1018.54 1018.40 1018.23 1018.22 1018.16 1018.24 1018.17 1017.95 1017.72 1017.53 1017.29
Thickness
5786 5783 5783 5786 5784 5782 5785 5784 5784 5785 5785 5784 5788 5789 5787 5788 5787 5789 5789 5788 5793 5793
5785 5785 5786 5789 5787 5786 5785 5786 5785 5787 5789 5786 5787 5790 5787 5788 5789 5788 5790 5790 5790 5793
5787 5787 5790 5791 5789 5788 5787 5789 5789 5789 5790 5787 5789 5791 5789 5787 5788 5788 5789 5790 5790 5791
5785 5786 5788 5789 5788 5787 5788 5788 5787 5789 5789 5785 5789 5793 5789 5787 5788 5787 5787 5788 5789 5790
5781 5781 5782 5784 5790 5784 5782 5787 5787 5784 5784 5787 5790 5794 5789 5788 5790 5788 5785 5787 5788 5789
5778 5779 5778 5781 5784 5789 5785 5784 5786 5783 5786 5789 5791 5792 5790 5789 5789 5790 5790 5789 5789 5791
5764 5771 5773 5778 5782 5786 5788 5785 5787 5789 5789 5792 5792 5790 5790 5790 5791 5791 5792 5793 5794 5794
5750 5761 5765 5765 5776 5782 5783 5784 5785 5787 5788 5789 5790 5790 5789 5791 5791 5790 5791 5793 5795 5798
5746 5747 5748 5753 5759 5772 5775 5780 5781 5782 5783 5783 5787 5790 5791 5792 5792 5792 5791 5791 5795 5798
5725 5728 5736 5743 5750 5756 5759 5769 5773 5776 5779 5781 5783 5786 5787 5788 5789 5791 5792 5793 5795 5795
5724 5727 5728 5731 5738 5744 5748 5755 5759 5765 5770 5774 5779 5781 5781 5781 5784 5788 5791 5793 5793 5794
5719 5724 5725 5731 5735 5739 5743 5744 5748 5753 5756 5761 5770 5773 5773 5774 5778 5783 5787 5790 5792 5792
5707 5712 5715 5723 5729 5729 5736 5739 5742 5746 5751 5757 5761 5765 5768 5767 5771 5777 5779 5785 5789 5791
5690 5696 5705 5709 5715 5722 5727 5732 5734 5736 5744 5750 5754 5757 5760 5762 5764 5767 5770 5776 5781 5786